Location: Newark
(23.3970°S, 47.6010°W)
Time: 08:33:25
(UTC+00:00)

deb Explorer IX - Pass Details

Date: 25 February 2020
Orbit: 547 x 1101 km, 38.8° (Epoch: 28 March)

Event Time Altitude Azimuth Distance (km) Brightness Sun altitude
Rises 00:12:34 0° 279° (W) 3,447 ? -33.0°
Reaches altitude 10° 00:15:08 10° 272° (W) 2,597 ? -33.5°
Maximum altitude 00:21:04 40° 203° (SSW) 1,430 ? -34.6°
Enters shadow 00:22:33 36° 174° (S) 1,561 ? -34.9°
Drops below altitude 10° 00:27:42 10° 134° (SE) 2,907 - -35.9°
Sets 00:30:45 0° 127° (SE) 3,902 - -36.5°
